RULLOA Weather Reports


time (UTC)temp
C
wind
direction
speed
KPH
gust
KPH
rain 1hr
cm
rain 24hr
cm
rain mn
cm
humidity
%
barometer
mb
20260507084541 25 178 0.0 0.0 0.03 0.15 0.03 1 1009.2
20260507083037 25 177 0.0 0.0 0.03 0.15 0.03 1 1009.1
20260507081541 25 173 0.0 1.6 0.03 0.15 0.03 1 1009.1
20260507080027 25 165 0.0 0.0 0.03 0.15 0.03 1 1009.2
20260507074529 25 132 0.0 0.0 0.00 0.13 0.00 1 1009.3
20260507073018 25 132 0.0 0.0 0.00 0.13 0.00 1 1009.3
20260507071513 25 138 0.0 0.0 0.00 0.13 0.00 1 1009.6
20260507070012 25 108 0.0 0.0 0.00 0.13 0.00 1 1009.5
20260507064505 25 108 0.0 0.0 0.00 0.13 0.00 1 1009.5
20260507063117 25 108 0.0 0.0 0.00 0.13 0.00 1 1009.6
20260507061557 25 108 0.0 0.0 0.00 0.13 0.00 1 1009.8
20260507060052 25 108 0.0 0.0 0.00 0.13 0.00 1 1009.8
20260507054547 25 108 0.0 0.0 0.00 0.13 0.00 1 1009.9
20260507053044 25 83 0.0 0.0 0.00 0.13 0.00 1 1010.1
20260507051540 25 103 0.0 0.0 0.00 0.13 0.00 1 1010.3
20260507050036 26 86 0.0 0.0 0.00 0.13 0.00 1 1010.5
20260507044533 26 67 0.0 0.0 0.00 0.13 0.13 1 1010.4
20260507043030 25 65 0.0 1.6 0.00 0.13 0.13 1 1010.5
20260507041522 25 27 0.0 0.0 0.00 0.13 0.13 1 1010.7
20260507040017 25 26 0.0 0.0 0.00 0.13 0.13 1 1010.7
20260507034514 25 321 0.0 0.0 0.03 0.13 0.13 1 1010.6
20260507033011 25 321 0.0 0.0 0.03 0.13 0.13 1 1010.4
20260507031503 25 321 0.0 0.0 0.03 0.13 0.13 1 1010.1
20260507030104 25 338 0.0 0.0 0.05 0.13 0.13 1 1009.8
20260507024603 26 329 0.0 0.0 0.03 0.10 0.10 1 1009.7
20260507023050 26 327 0.0 0.0 0.08 0.10 0.10 1 1009.7
20260507021550 26 311 0.0 0.0 0.10 0.10 0.10 1 1009.7
20260507020041 26 339 0.0 0.0 0.08 0.08 0.08 1 1009.4
20260507014537 27 339 0.0 0.0 0.08 0.08 0.08 1 1009.4
20260507013037 27 283 0.0 0.0 0.03 0.03 0.03 1 1009.0
20260507011533 27 321 0.0 0.0 0.00 0.00 0.00 1 1008.7
20260507010032 27 299 0.0 0.0 0.00 0.00 0.00 1 1008.5
20260507004519 27 319 0.0 0.0 0.00 0.00 0.00 1 1008.1
20260507003015 28 325 0.0 4.8 0.00 0.00 0.00 1 1007.9
20260507001511 29 28 0.0 0.0 0.00 0.00 0.00 1 1007.5
20260507000006 30 42 0.0 0.0 0.00 0.00 0.00 20 1007.3
20260506234508 30 35 0.0 0.0 0.00 0.00 0.00 30 1007.0
20260506233006 30 35 0.0 0.0 0.00 0.00 0.00 36 1006.7
20260506231505 30 77 0.0 0.0 0.00 0.00 0.00 37 1006.5
20260506230004 31 123 0.0 0.0 0.00 0.00 0.00 53 1006.2
20260506224514 31 123 0.0 0.0 0.00 0.00 0.00 52 1006.0
20260506223003 31 123 0.0 0.0 0.00 0.00 0.00 55 1005.8
20260506221503 30 123 0.0 0.0 0.00 0.00 0.00 56 1005.7
20260506220002 31 121 0.0 0.0 0.00 0.00 0.00 57 1005.7
20260506214501 31 134 0.0 0.0 0.00 0.00 0.00 58 1005.7
20260506213100 31 127 0.0 0.0 0.00 0.00 0.00 58 1005.7
20260506213002 31 126 0.0 0.0 0.00 0.00 0.00 57 1005.7
20260506211559 31 107 0.0 0.0 0.00 0.00 0.00 56 1005.8
20260506210057 31 118 0.0 0.0 0.00 0.00 0.00 51 1005.9
20260506204555 30 122 0.0 0.0 0.00 0.00 0.00 53 1005.8
20260506203059 30 115 0.0 0.0 0.00 0.00 0.00 54 1005.8
20260506201553 30 119 0.0 0.0 0.00 0.00 0.00 53 1005.9
20260506200051 30 111 0.0 0.0 0.00 0.00 0.00 46 1005.9
20260506194552 30 80 0.0 0.0 0.00 0.00 0.00 44 1006.1
20260506193050 30 115 0.0 0.0 0.00 0.00 0.00 42 1006.3
20260506191544 30 108 0.0 0.0 0.00 0.00 0.00 48 1006.6
20260506190042 30 110 0.0 0.0 0.00 0.00 0.00 40 1006.8
20260506184540 30 89 0.0 0.0 0.00 0.00 0.00 41 1006.8
20260506183041 30 96 0.0 0.0 0.00 0.00 0.00 43 1007.0
20260506181547 30 148 0.0 0.0 0.00 0.00 0.00 40 1007.1
20260506180032 30 98 0.0 0.0 0.00 0.00 0.00 32 1007.4
20260506174529 30 145 0.0 0.0 0.00 0.00 0.00 31 1007.5
20260506173025 30 116 0.0 0.0 0.00 0.00 0.00 33 1007.9
20260506164536 28 106 0.0 0.0 0.00 0.00 0.00 18 1008.9
20260506163032 28 96 0.0 0.0 0.00 0.00 0.00 22 1009.1
20260506161526 28 95 0.0 0.0 0.00 0.00 0.00 8 1009.4
20260506160035 28 54 0.0 0.0 0.00 0.00 0.00 1 1009.7
20260506154518 28 76 0.0 0.0 0.00 0.00 0.00 1 1009.8
20260506153013 28 58 0.0 0.0 0.00 0.00 0.00 1 1010.0
20260506151509 28 57 0.0 0.0 0.00 0.00 0.00 1 1010.1
20260506150004 28 28 0.0 0.0 0.00 0.00 0.00 1 1010.1
20260506144609 27 38 0.0 0.0 0.00 0.00 0.00 1 1010.1
20260506143055 27 31 0.0 0.0 0.00 0.00 0.00 1 1010.2
20260506141552 27 15 0.0 0.0 0.00 0.00 0.00 1 1010.4
20260506140047 27 30 0.0 0.0 0.00 0.00 0.00 1 1010.4
20260506134546 27 36 0.0 0.0 0.00 0.00 0.00 1 1010.6
20260506133037 26 50 0.0 0.0 0.00 0.00 0.00 1 1010.6
20260506131545 25 40 0.0 0.0 0.00 0.00 0.00 1 1010.7
20260506130037 25 40 0.0 0.0 0.00 0.00 0.00 1 1010.6
20260506124524 25 40 0.0 0.0 0.00 0.00 0.00 1 1010.3
20260506123019 25 28 0.0 0.0 0.00 0.00 0.00 1 1010.1
20260506121515 25 28 0.0 0.0 0.00 0.00 0.00 1 1009.9
20260506120016 25 19 0.0 0.0 0.00 0.00 0.00 1 1009.8
20260506114506 -17 0.0 0.0 0.00 0.00 0.00 1009.8
20260506113002 -17 0.0 0.0 0.00 0.00 0.00 1009.7
20260506111558 24 332 0.0 0.0 0.00 0.00 0.00 1 1009.7
20260506104550 25 329 0.0 0.0 0.00 0.00 0.00 1 1009.6
20260506103045 25 329 0.0 0.0 0.00 0.00 0.00 1 1009.6
20260506101541 25 329 0.0 0.0 0.00 0.00 0.00 1 1009.6
20260506100038 25 329 0.0 0.0 0.00 0.00 0.00 1 1009.5
20260506094543 25 329 0.0 0.0 0.00 0.00 0.00 1 1009.3
20260506093034 25 329 0.0 0.0 0.00 0.00 0.00 1 1009.4
20260506091526 25 329 0.0 0.0 0.00 0.00 0.00 1 1009.4
20260506090017 25 329 0.0 0.0 0.00 0.00 0.00 1 1009.4